Regional Weather Roundup
Issued by NWS

Home | Current Version | Previous Version | Text Only | Print | Product List | Glossary Off
Versions: 1 2 3 4 5 6 7 8 9 10 11 12 13 14 15 16 17 18 19 20 21 22 23 24 25 26 27 28 29 30 31 32 33 34 35 36 37 38 39 40 41 42 43 44 45 46 47 48 49 50

000
ASUS43 KOAX 031310
RWRNE

WEATHER ROUNDUP FOR NEBRASKA
NATIONAL WEATHER SERVICE OMAHA NE
700 AM CST TUE MAR 03 2015

NOTES: SATELLITE DATA IS BEING USED TO AUGMENT CLOUD COVER ABOVE
       12000 FEET.
       "FAIR" INDICATES FEW OR NO CLOUDS BELOW 12,000 FEET WITH NO
       SIGNIFICANT WEATHER AND/OR OBSTRUCTIONS TO VISIBILITY.

  * THESE STATIONS DO NOT REPORT WEATHER SUCH AS RAIN...SNOW OR FOG.

NEZ001>004-019>022-054>056-031400-
NEBRASKA PANHANDLE

CITY           SKY/WX    TMP DP  RH WIND       PRES   REMARKS
SCOTTSBLUFF    CLOUDY    24  19  81 N14       29.85R WCI  12
ALLIANCE       LGT SNOW  16  11  80 N25G37    29.82R WCI  -3
CHADRON        CLOUDY    17  11  77 NE24G32   29.92R HAZE    WCI  -1
KIMBALL        LGT SNOW  23  20  91 N16G28    29.76R WCI   9
SIDNEY         CLOUDY    23  19  85 N28G36    29.76R WCI   6
$$

NEZ057>060-069>072-079>082-031400-
SOUTHWEST NEBRASKA

CITY           SKY/WX    TMP DP  RH WIND       PRES   REMARKS
NORTH PLATTE   CLOUDY    30  27  88 NW9       29.72R WCI  22
IMPERIAL         N/A     31  28  89 NW15      29.73R WCI  20
LEXINGTON      MOCLDY    26  22  84 NW10      29.69R WCI  16
MCCOOK         CLOUDY    28  23  81 NW8       29.70R WCI  20
OGALLALA       CLOUDY    29  27  90 N26G33    29.74R WCI  15
$$

NEZ005>010-023>029-035>040-094-031400-
NORTH CENTRAL NEBRASKA

CITY           SKY/WX    TMP DP  RH WIND       PRES   REMARKS
VALENTINE      LGT SNOW  18  13  80 N22G33    29.84R WCI   1
AINSWORTH      LGT SNOW  22  18  87 N35G43    29.77R WCI   2
BROKEN BOW     CLOUDY    29  23  78 W9        29.68R WCI  20
O`NEILL        CLOUDY    29  26  89 W12       29.68S WCI  20
ORD            CLOUDY    27  21  78 W3        29.68R
THEDFORD       FLURRIES  25  20  82 N25G40    29.76R WCI  10
$$

NEZ041-046>049-061>064-073>077-083>087-031400-
SOUTH CENTRAL NEBRASKA

CITY           SKY/WX    TMP DP  RH WIND       PRES   REMARKS
GRAND ISLAND   CLOUDY    29  24  82 NW8       29.68R WCI  21
AURORA         CLOUDY    30  28  90 NW9       29.66F WCI  22
HASTINGS       CLOUDY    30  24  78 NW9       29.66R WCI  22
HEBRON         CLOUDY    34  30  83 W7        29.64F WCI  28
HOLDREGE       CLOUDY    28  23  81 NW7       29.68R WCI  20
KEARNEY *      CLOUDY    28  21  74 NW7       29.68R WCI  21
YORK           CLOUDY    30  28  93 NW9       29.67R FOG     WCI  22
$$

NEZ011>018-030>034-042>045-031400-
NORTHEAST NEBRASKA

CITY           SKY/WX    TMP DP  RH WIND       PRES   REMARKS
NORFOLK        CLOUDY    29  27  92 W6        29.68R FOG     WCI  23
ALBION         CLOUDY    29  22  74 NW7       29.66F WCI  22
BLAIR          MIX PCPN  32  31  94 S6        29.64S WCI  26
COLUMBUS *     CLOUDY    30  21  69 W8        29.69R WCI  23
FREMONT        CLOUDY    32  32 100 W5        29.69R FOG     WCI  27
TEKAMAH        CLOUDY    31  29  92 SW7       29.69R FOG     WCI  24
WAYNE          CLOUDY    28  27  95 W5        29.69R FOG     WCI  23
$$

NEZ050>053-065>068-078-088>093-031400-
SOUTHEAST NEBRASKA

CITY           SKY/WX    TMP DP  RH WIND       PRES   REMARKS
LINCOLN        FOG       32  32 100 W5        29.68R VSB 1   WCI  27
OMAHA EPPLEY   FRZ DRZL  31  31 100 SE5       29.65F FOG     WCI  26
BEATRICE       CLOUDY    35  32  91 SW9       29.62F FOG     WCI  27
FALLS CITY     CLOUDY    36  34  92 S9        29.67F FOG     WCI  29
NEBRASKA CITY  FOG       33  33 100 S9        29.66S VSB 1   WCI  26
PLATTSMOUTH    CLOUDY    32  31  95 S10       29.66R FOG     WCI  24
$$

NEZ044-045-051>053-067-031400-
OMAHA AREA

CITY           SKY/WX    TMP DP  RH WIND       PRES   REMARKS
OMAHA EPPLEY   FRZ DRZL  31  31 100 SE5       29.65F FOG     WCI  26
BLAIR          MIX PCPN  32  31  94 S6        29.64S WCI  26
FREMONT        CLOUDY    32  32 100 W5        29.69R FOG     WCI  27
MILLARD        DRIZZLE   32  31  96 CALM      29.67S
OFFUTT AFB     FRZ DRZL  32  31  96 S5        29.67R FOG     WCI  27
PLATTSMOUTH    CLOUDY    32  31  95 S10       29.66R FOG     WCI  24
WAHOO          CLOUDY    32  30  92 W3        29.68R FOG
$$


USA.gov is the U.S. government's official web portal to all federal, state and local government web resources and services.